Location: Roanoke
(37.2710°N, 79.9420°W)
Time: 10:17:36
(UTC-05:00)

S-56A Canister/Altair - Pass Details

Date: 28 November 2019
Orbit: 632 x 2500 km, 38.9° (Epoch: 14 December)

Event Time Altitude Azimuth Distance (km) Brightness Sun altitude
Rises 15:19:20 0° 256° (WSW) 6,091 13.2 16.0°
Reaches altitude 10° 15:23:33 10° 256° (WSW) 4,960 12.9 15.4°
Maximum altitude 15:37:22 89° 348° (NNW) 1,865 9.7 13.4°
Drops below altitude 10° 15:46:44 10° 79° (E) 3,489 10.4 12.0°
Sets 15:49:12 0° 79° (E) 4,248 10.8 11.6°
